Location: Oshawa
(43.9000°N, 78.8670°W)
Time: 04:14:08
(UTC-05:00)

Explorer 11/Cluster Stage 4 - Visible Passes

Search period start: 24 January 2017 00:00
Search period end: 03 February 2017 00:00
Orbit: 467 x 1264 km, 28.8° (Epoch: 22 January)

Date Brightness Start Highest point End Pass type
(mag) Time Alt. Az. Time Alt. Az. Time Alt. Az.
24 Jan 8.9 18:50:04 10° SSW 18:55:29 22° SSE 18:59:59 14° SE visible
24 Jan 8.9 20:37:25 10° SW 20:42:10 25° SSW 20:42:10 25° SSW visible
25 Jan 8.9 18:39:54 10° SW 18:45:15 22° SSE 18:50:37 11° ESE visible
25 Jan 8.8 20:27:21 10° SW 20:32:48 26° S 20:32:48 26° S visible
26 Jan 8.9 18:29:47 10° SW 18:35:03 23° SSE 18:40:53 10° ESE visible
26 Jan 8.8 20:17:20 10° SW 20:23:16 25° S 20:23:27 25° S visible
27 Jan 8.9 18:19:45 10° SW 18:24:51 23° S 18:30:36 10° ESE visible
27 Jan 8.8 20:07:22 10° SW 20:13:03 24° S 20:14:07 23° S visible
28 Jan 8.9 18:09:46 10° SW 18:14:42 22° S 18:20:17 10° SE visible
28 Jan 8.9 19:57:29 10° SW 20:02:51 22° S 20:04:49 20° SSE visible
29 Jan 8.9 17:59:49 10° SW 18:04:33 22° S 18:09:56 10° SE visible
29 Jan 9.0 19:47:40 10° SW 19:52:41 21° S 19:55:34 17° SSE visible
30 Jan 8.9 17:49:57 10° SW 17:54:25 21° S 17:59:32 10° SE visible
30 Jan 9.1 19:37:56 10° SW 19:42:30 19° S 19:46:24 13° SSE visible
31 Jan 9.2 19:28:19 10° SW 19:32:21 17° SSW 19:36:47 10° SSE visible
01 Feb 9.3 19:18:50 10° SW 19:22:13 15° SSW 19:25:53 10° SSE visible
02 Feb 9.4 19:09:38 10° SW 19:12:07 12° SSW 19:14:44 10° S visible
